Hourly Data Report for June 15, 2021

FISHER BRANCH (AUT)
MANITOBA
Current Station Operator: ECCC - MSC

51°05'00.100" N
97°33'16.200" W
253.00 m
50309J6
71442
WSZ

Download Data

Hourly Data (June 2021)
Hourly Data Report for June 15, 2021
TIME
LST
Temp Definition
°C
Dew Point Definition
°C
Rel Hum Definition
%
Precip. Amount Definition
mm

Wind Dir Definition
10's deg

Wind Spd Definition
km/h
Visibility Definition
km
Stn Press Definition
kPa
Hmdx Definition


Wind Chill Definition


Weather Definition


00:00 12.0 7.4 73 0.0 34 5   99.27     LegendNANA
01:00 10.6 8.0 84 0.0 29 3   99.25     LegendNANA
02:00 9.0 6.8 86 0.0 32 4   99.25     LegendNANA
03:00 8.7 7.1 90 0.0 29 2   99.24     LegendNANA
04:00 7.5 6.1 91 0.0 30 3   99.28     LegendNANA
05:00 9.2 7.5 89 0.0 29 7   99.31     LegendNANA
06:00 12.3 9.6 83 0.0 36 2   99.33     LegendNANA
07:00 15.4 11.4 77 0.0 30 2   99.33     LegendNANA
08:00 18.7 12.3 66 0.0 31 4   99.32     LegendNANA
09:00 21.4 12.5 57 0.0 31 4   99.31     LegendNANA
10:00 23.5 8.3 38 0.0 10 6   99.26     LegendNANA
11:00 25.0 8.6 35 0.0 11 8   99.22 26   LegendNANA
12:00 25.6 7.6 32 0.0 10 9   99.17 26   LegendNANA
13:00 26.3 7.5 30 0.0 14 9   99.10 27   LegendNANA
14:00 27.4 8.3 30 0.0 12 10   99.03 28   LegendNANA
15:00 28.1 12.1 37 0.0 13 15   98.98 30   LegendNANA
16:00 27.6 13.9 43 0.0 12 17   98.95 31   LegendNANA
17:00 28.4 11.3 35 0.0 15 16   98.87 30   LegendNANA
18:00 27.6 9.6 32 0.0 16 19   98.85 29   LegendNANA
19:00 26.8 11.0 37 0.0 18 13   98.81 29   LegendNANA
20:00 24.7 10.9 42 0.0 16 14   98.75 26   LegendNANA
21:00 22.3 11.2 49 0.0 15 12   98.71     LegendNANA
22:00 19.6 12.2 63 0.0 13 15   98.70     LegendNANA
23:00 17.7 12.3 71 0.0 14 13   98.68     LegendNANA

Notes on Data Quality.

Legend

  • E = Estimated
  • M = Missing
  • NA = Not Available*
  • [empty] = Indicates an unobserved value
Date modified: